Regional Weather Roundup
Issued by NWS

Home | Current Version | Previous Version | Text Only | Print | Product List | Glossary On
Versions: 1 2 3 4 5 6 7 8 9 10 11 12 13 14 15 16 17 18 19 20 21 22 23 24 25 26 27 28 29 30 31 32 33 34 35 36 37 38 39 40 41 42 43 44 45 46 47 48 49 50
000
ASUS43 KLMK 041202
RWRKY
KENTUCKY REGIONAL WEATHER ROUNDUP
NATIONAL WEATHER SERVICE LOUISVILLE KY
700 AM EST WED MAR 04 2015

NOTE "FAIR" INDICATES FEW OR NO CLOUDS BELOW 12,000 FEET
WITH NO SIGNIFICANT WEATHER AND/OR OBSTRUCTIONS TO VISIBILITY.

KYZ001>023-026-027-061>063-070>075-041300-
WESTERN AND SOUTH CENTRAL KENTUCKY

CITY           SKY/WX    TMP DP  RH WIND       PRES   REMARKS
PADUCAH        LGT RAIN  41  39  93 N14       29.95R FOG
HENDERSON      CLOUDY    36  34  93 N8        29.98R WCI  29
OWENSBORO      HVY RAIN  40  38  93 N9        29.98R FOG     WCI  34
HOPKINSVILLE   DRIZZLE   45  44  97 NE3       29.90S
BOWLING GREEN  HVY RAIN  47  45  93 CALM      29.91S FOG
GLASGOW        NOT AVBL
$$

KYZ024-025-028>034-038-045-046-053-041300-
NORTH CENTRAL KENTUCKY

CITY           SKY/WX    TMP DP  RH WIND       PRES   REMARKS
LOUISVILLE/SDF RAIN      42  40  92 N8        29.93F FOG
LOUISVILLE/LOU LGT RAIN  42  40  92 N5        29.93F FOG
FORT KNOX      LGT RAIN  41  40  96 N6        29.90S
$$

KYZ035>037-039>044-047>052-055>060-089>105-041300-
NORTHEAST KENTUCKY

CITY           SKY/WX    TMP DP  RH WIND       PRES   REMARKS
LEXINGTON      HVY RAIN  41  40  96 CALM      29.93R FOG
COVINGTON      LGT RAIN  36  35  96 CALM      29.92R FOG
FRANKFORT      RAIN      41  40  96 CALM      29.92R FOG
$$

KYZ054-064>069-076>088-106>120-041300-
SOUTHEAST KENTUCKY

CITY           SKY/WX    TMP DP  RH WIND       PRES   REMARKS
JACKSON        LGT RAIN  48  46  93 CALM      29.93R
LONDON         LGT RAIN  51  47  86 NE6       29.92R
SOMERSET       NOT AVBL
MIDDLESBORO    DRIZZLE   55  55 100 S5        29.90R
MONTICELLO     CLOUDY    52  50  93 NE5       29.96R
$$



USA.gov is the U.S. government's official web portal to all federal, state and local government web resources and services.